SCP
0 0 0 0 0 0 0 0 0 0 0 0 0 0 0 0 0 0 0 0 0 0 0 0 0 0 0 0 0 0 0 0 0 0 0 0 0 0 0 0 0 0 0
0 0 0 0 0 0 0 0 0 0 0 0 0 0 0 0 0 0 0 0 0 0 0 0 0 0 0 0 0 0 0 0 0 0 0 0 0 0 0 0 0 0 0
0 0 0 0 0 0 0 0 0 0 0 0 0 0 0 0 0 0 0 0 0 0 0 0 0 0 0 0 0 0 0 0 0 0 0 0 0 0 0 0 0 0 0
0 0 0 0 0 0 0 0 0 0 0 0 0 0 0 0 0 0 0 0 0 0 0 0 0 0 0 0 0 0 0 0 0 0 0 0 0 0 0 0 0 0 0
0 0 0 0 0 0 0 0 0 0 0 0 0 0 0 0 0 0 0 0 0 0 0 0 0 0 0 0 0 0 0 0 0 0 0 0 0 0 0 0 0 0 0
0 0 0 0 0 0 0 0 0 0 0 0 0 0 0 0 0 0 0 0 0 0 0 0 0 0 0 0 0 0 0 0 0 0 0 0 0 0 0 0 0 0 0
0 0 0 0 0 0 0 0 0 0 0 0 0 0 0 0 0 0 0 0 0 0 0 0 0 0 0 0 0 0 0 0 0 0 0 0 0 0 0 0 0 0 0
0 0 0 0 0 0 0 0 0 0 0 0 0 0 0 0 0 0 0 0 0 0 0 0 0 0 0 0 0 0 0 0 0 0 0 0 0 0 0 0 0 0 0
0 0 0 0 0 0 0 0 0 0 0 0 0 0 0 0 0 0 0 0 0 0 0 0 0 0 0 0 0 0 0 0 0 0 0 0 0 0 0 0 0 0 0
0 0 0 0 0 0 0 0 0 0 0 0 0 0 0 0 0 0 0 0 0 0 0 0 0 0 0 0 0 0 0 0 0 0 0 0 0 0 0 0 0 0 0
0 0 0 0 0 0 0 0 0 0 0 0 0 0 0 0 0 0 0 0 0 0 0 0 0 0 0 0 0 0 0 0 0 0 0 0 0 0 0 0 0 0 0
0 0 0 0 0 0 0 0 0 0 0 0 0 0 0 0 0 0 0 0 0 0 0 0 0 0 0 0 0 0 0 0 0 0 0 0 0 0 0 0 0 0 0
0 0 0 0 -0 0 0 0 0 0 0 0 0 0 0 0 0 0 0 0 0 0 0 0 0 0 0 0 0 0 0 0 0 0 0 0 0 0 0 0 0 0 0
0 0 0 0 0 0 0 0 0 0 0 0 0 0 0 0 0 0 0 0 0 0 0 0 0 0 0 0 0 0 0 0 0 0 0 0 0 0 0 0 0 0 0
0 0 0 0 0 0 0 0 0 0 0 0 0 0 0 0 0 0 0 0 0 0 0 0 0 0 0 0 0 0 0 0 0 0 0 0 0 0 0 0 0 0 0
0 0 0 0 0 0 0 0 0 0 0 0 0 0 0 0 0 0 0 0 0 0 0 0 0 0 0 0 0 0 0 0 0 0 0 0 0 0 0 0 0 0 0
0 0 0 0 0 0 0 0 0 0 0 0 0 0 0 0 0 0 0 0 0 0 0 0 0 0 0 0 0 0 0 0 0 0 0 0 0 0 0 0 0 0 0
0 0 0 0 0 0 0 0 0 0 0 0 0 0 0 0 0 0 0 0 0 0 0 0 0 0 0 0 0 0 0 0 0 0 0 0 0 0 0 0 0 0 0
0 0 0 0 0 0 0 0 0 0 0 0 0 0 0 0 0 0 0 0 0 0 0 0 0 0 0 0 0 0 0 0 0 0 0 0 0 0 0 0 0 0 0
0 0 0 0 0 0 0 0 0 0 0 0 0 0 0 0 0 0 0 0 0 0 0 0 0 0 0 0 0 0 0 0 0 0 0 0 0 0 0 0 0 0 0
0 0 0 0 0 0 0 0 0 0 0 0 0 0 0 0 0 0 0 0 0 0 0 0 0 0 0 0 0 0 0 0 0 0 0 0 0 0 0 0 0 0 0
0 0 0 0 0 0 0 0 0 0 0 0 0 0 0 0 0 0 0 0 0 0 0 0 0 0 0 0 0 0 0 0 0 0 0 0 0 0 0 0 0 0 0
0 0 0 0 0 0 0 0 0 0 0 0 0 0 0 0 0 0 0 0 0 0 0 0 0 0 0 0 0 0 0 0 0 0 0 0 0 0 0 0 0 0 0
0 0 0 0 0 0 0 0 0 0 0 0 0 0 0 0 0 0 0 0 0 0 0 0 0 0 0 0 0 0 0 0 0 0 0 0 0 0 0 0 0 0 0
0 0 0 0 0 0 0 0 0 0 0 0 0 0 0 0 0 0 0 0 0 0 0 0 0 0 0 0 0 0 0 0 0 0 0 0 0 0 0 0 0 0 0
0 0 0 0 0 0 0 0 0 0 0 0 0 0 0 0 0 0 0 0 0 0 0 0 0 0 0 0 0 0 0 0 0 0 0 0 0 0 0 0 0 0 0
Wind_Speed
8 11 11 10 9 8 7 7 7 7 6 6 5 5 5 5 5 5 5 5 5 5 5 5 6 6 6 6 6 6 6 6 6 5 4 4 5 5 5 5 5 5 8
11 12 11 10 9 8 8 8 7 6 6 5 5 4 4 4 4 4 3 4 4 4 4 4 5 5 5 5 5 6 5 5 5 4 2 1 3 4 4 5 7 5 7
12 12 11 10 9 8 8 7 7 6 5 4 4 3 3 3 3 3 3 3 3 3 3 3 4 4 4 4 5 5 5 5 5 5 5 2 3 5 5 5 6 6 7
12 11 11 11 9 9 8 7 6 5 5 3 3 2 2 2 3 4 4 4 4 3 3 3 3 3 3 4 4 5 4 5 6 8 4 1 3 6 5 5 5 5 6
12 12 11 11 10 8 7 6 5 4 3 2 1 2 3 3 3 4 4 4 5 4 4 4 3 3 4 4 4 5 5 6 7 8 4 2 4 6 5 4 4 4 4
12 12 10 10 9 8 7 6 5 4 2 2 1 2 4 4 4 4 5 4 4 4 4 4 4 4 4 4 4 4 5 6 8 5 2 1 3 6 5 4 3 4 4
10 11 10 11 9 8 7 6 5 5 3 2 2 2 4 5 5 5 5 5 5 4 4 4 5 5 5 5 4 4 5 7 6 5 2 2 5 7 5 3 3 3 3
8 9 10 11 9 8 7 5 4 4 4 3 3 3 4 5 6 6 6 6 5 5 5 6 6 6 6 5 5 5 5 7 6 6 2 3 7 7 5 4 3 3 3
6 5 6 7 8 8 8 6 4 2 1 2 3 4 5 6 7 8 7 6 7 7 7 7 7 7 7 7 6 6 6 6 5 5 5 3 8 8 6 4 4 3 3
5 4 4 4 4 5 6 7 5 3 3 4 5 6 7 8 9 10 8 7 8 8 9 8 9 9 8 8 8 8 7 6 5 6 3 4 10 8 6 4 4 4 4
4 3 4 4 3 2 2 5 4 5 5 6 6 8 8 5 4 6 6 7 8 9 10 10 10 10 9 9 10 10 7 4 5 4 2 8 10 8 6 5 5 5 5
5 3 3 3 3 2 2 3 0 1 2 3 1 2 2 2 2 2 3 6 7 9 10 10 11 10 8 4 7 9 4 5 4 3 3 11 10 7 6 6 6 5 6
5 4 3 2 2 3 2 2 0 0 0 1 2 2 2 2 2 1 1 3 5 6 4 5 6 4 4 4 3 4 5 4 2 2 3 9 9 7 6 6 6 6 6
5 4 4 2 3 3 4 2 1 1 1 2 2 4 2 2 2 2 2 1 1 2 2 2 2 4 4 4 5 5 5 3 2 1 4 8 8 7 6 6 6 7 7
6 4 4 3 4 3 3 2 2 2 2 2 2 2 2 2 2 3 2 1 1 1 1 1 2 3 3 4 5 5 5 4 3 2 3 8 8 8 8 7 7 8 8
5 5 5 2 3 3 2 2 2 2 1 1 2 3 3 2 2 2 3 2 2 1 1 2 2 2 2 2 4 4 4 3 3 3 3 5 8 9 9 9 9 8 9
5 5 5 2 2 3 4 4 2 1 2 2 2 3 4 3 3 2 3 3 3 3 2 2 3 1 2 3 4 4 3 3 3 3 3 3 5 8 10 10 10 10 9
5 5 5 3 3 4 3 2 2 3 3 2 2 3 5 5 5 3 2 3 3 2 2 2 1 2 2 2 2 3 2 2 4 4 3 4 4 4 8 11 10 10 10
5 5 6 4 2 3 2 0 1 2 2 2 3 3 4 6 6 4 2 2 3 2 2 3 2 1 2 2 3 3 2 2 3 4 4 4 3 4 5 9 11 10 10
4 5 6 5 3 3 2 2 2 2 2 2 2 3 3 3 4 4 3 3 3 2 2 2 2 2 1 2 4 3 2 2 2 3 4 2 2 4 5 6 6 7 10
5 4 6 4 4 3 2 1 1 1 1 1 1 2 3 3 4 4 3 3 2 2 2 3 1 2 2 2 2 2 2 2 2 3 2 1 2 2 3 5 5 5 5
5 4 5 5 4 4 2 0 0 0 1 1 0 1 2 3 3 4 3 3 2 2 2 2 1 1 2 2 1 1 1 1 1 3 2 2 3 2 3 5 5 5 5
6 5 4 4 5 5 3 1 2 1 1 1 1 1 1 1 2 2 4 3 3 2 1 2 1 1 1 2 1 1 0 1 2 2 2 2 2 2 2 2 4 5 5
6 5 5 5 4 4 3 2 1 1 1 1 1 1 1 1 1 1 3 4 3 2 2 2 2 1 1 1 2 1 1 0 1 2 2 1 2 3 3 3 3 3 4
7 5 4 5 5 4 3 2 1 1 2 1 2 2 2 1 1 1 2 3 3 2 2 3 2 2 1 1 1 1 2 1 1 0 1 2 2 1 2 2 1 1 2
7 6 5 5 5 4 2 2 2 1 1 2 2 1 2 1 1 2 2 2 2 2 3 3 2 2 1 1 1 1 1 1 1 1 1 1 1 1 1 1 1 1 1
Wind_Direction
106 111 110 105 103 100 96 90 86 81 74 65 56 45 40 37 35 33 29 20 19 18 14 14 16 21 28 29 27 27 30 29 29 34 43 59 74 74 68 57 51 87 85
112 109 105 103 100 96 92 89 86 83 75 67 55 39 30 24 23 23 14 355 356 1 5 6 7 8 15 19 17 17 20 18 9 2 358 49 109 95 77 60 63 84 87
108 110 102 97 94 91 90 88 84 82 75 67 55 35 19 7 355 352 339 327 330 330 338 349 353 355 2 3 2 3 7 359 345 326 302 257 151 118 93 80 80 85 87
102 100 98 96 92 89 86 84 81 81 77 65 44 11 347 329 318 320 317 314 309 307 305 313 335 339 342 345 344 346 350 338 321 313 298 281 134 118 105 92 88 91 92
101 100 98 97 93 89 83 79 75 72 71 56 20 331 311 294 290 292 293 298 300 296 295 298 314 318 321 326 325 325 326 319 309 300 302 46 95 117 109 102 95 101 101
107 104 105 101 97 92 86 78 67 55 47 31 335 293 284 283 280 279 278 275 285 284 273 271 279 284 291 296 304 308 308 305 303 292 292 95 112 121 117 109 102 111 114
110 116 119 117 112 105 96 82 64 47 33 15 339 293 278 271 272 272 270 260 254 261 262 251 253 256 265 272 280 291 294 297 281 283 272 132 125 126 125 125 125 121 125
100 112 126 133 130 126 115 98 76 54 29 6 335 301 287 276 267 263 266 264 255 247 244 244 246 254 256 261 263 270 280 287 289 302 272 152 140 134 136 146 156 146 134
96 102 122 140 140 138 129 120 109 90 27 337 309 288 276 271 268 259 253 258 256 250 245 244 247 251 251 250 253 258 265 276 287 280 277 143 145 143 147 158 171 167 157
121 113 109 111 113 130 145 145 151 169 213 246 258 259 261 262 256 253 248 240 245 246 247 246 244 247 246 244 247 252 257 269 259 263 256 150 145 147 156 167 178 173 166
116 112 110 101 102 125 164 130 176 202 216 235 246 243 253 262 247 234 222 220 236 242 249 249 245 244 243 243 244 245 249 244 247 245 217 145 145 148 162 176 179 178 175
134 126 113 122 128 123 57 103 162 183 188 240 262 255 258 287 291 289 162 216 236 242 247 248 244 243 238 235 237 237 236 242 256 248 172 150 148 153 166 178 181 181 180
127 110 91 76 91 83 82 62 18 294 247 312 18 339 325 327 325 312 195 211 231 239 242 242 238 234 225 218 219 216 226 239 240 251 153 148 151 160 173 182 184 182 181
100 90 73 32 51 58 64 5 270 55 39 357 12 354 360 355 329 327 315 315 232 232 211 221 218 226 231 230 224 222 229 227 233 209 155 155 160 171 183 186 187 184 182
120 118 89 42 37 47 64 306 28 48 38 354 18 337 7 355 330 332 319 324 290 286 261 227 233 230 229 238 234 229 227 220 235 237 154 168 172 180 190 192 189 187 183
130 125 107 77 51 38 35 19 32 25 44 7 19 351 2 355 336 336 331 338 334 316 290 276 264 234 230 240 250 249 228 221 228 229 187 183 186 186 192 196 193 192 190
129 120 112 117 83 60 37 11 3 6 30 25 34 358 353 359 345 359 352 342 337 326 328 315 312 300 260 247 247 251 236 220 235 234 209 187 190 195 195 197 197 195 195
122 116 111 82 67 75 64 3 353 18 22 2 30 24 0 359 1 3 356 337 328 334 337 314 311 315 300 283 268 254 233 207 233 233 221 205 189 190 196 198 194 195 196
124 124 119 102 71 76 72 332 40 35 9 10 39 37 3 354 356 356 339 327 340 332 336 318 345 325 305 296 271 247 232 216 229 237 232 218 196 184 183 192 192 192 196
130 127 116 117 104 82 65 12 44 43 360 38 43 43 4 339 352 346 330 349 347 341 346 332 341 327 311 293 286 275 237 220 222 234 238 217 210 202 183 180 180 192 196
147 134 126 128 118 104 72 21 25 25 343 50 40 42 346 344 357 340 344 341 345 339 334 330 333 325 322 315 318 307 276 228 212 227 225 204 228 223 181 178 180 175 185
148 139 137 132 118 110 114 17 189 63 300 110 41 62 353 355 3 347 342 328 332 318 337 337 343 349 327 336 330 336 330 324 276 227 207 200 220 212 197 197 185 179 176
152 148 144 132 134 125 131 82 18 355 307 41 26 62 314 357 28 349 330 329 327 341 1 334 6 16 338 324 342 45 44 311 304 283 231 208 197 192 203 213 203 185 179
152 148 152 138 126 117 115 89 333 332 20 22 352 25 325 58 44 11 347 338 341 355 3 350 32 352 353 333 332 339 341 34 307 313 319 298 225 199 200 213 215 200 183
146 143 143 130 123 115 112 135 277 13 359 360 355 3 349 37 38 48 5 340 347 357 3 0 6 3 3 347 337 333 343 341 293 297 312 322 318 253 197 196 194 218 182
133 137 136 130 125 130 156 167 166 135 311 311 322 349 332 326 41 50 24 349 356 10 6 360 350 348 351 340 339 342 359 350 340 359 324 308 297 287 268 186 184 216 202